Location: Morosaglia
(42.4360°N, 9.3069°E)
Time: 11:52:38
(UTC+00:00)

Cosmos 2058 - Pass Details

Date: 07 June 2020
Orbit: 561 x 584 km, 82.5° (Epoch: 01 July)

Event Time Altitude Azimuth Distance (km) Brightness Sun altitude
Exits shadow 02:27:00 17° 242° (WSW) 1,526 4.5 -12.0°
Maximum altitude 02:29:15 25° 286° (WNW) 1,189 4.3 -11.8°
Drops below altitude 10° 02:32:47 10° 343° (NNW) 1,914 6.0 -11.3°
Sets 02:35:18 0° 356° (N) 2,819 7.1 -11.0°
